Harlan, IA

11:52 AM CST on December 09, 2019 (GMT -0600)
Harlan Municipal

Weather History for KHNR - October, 2019

Change the Weather History Date:

Monday, October 21, 2019

  Actual Average Record
Temperature  
Mean Temperature 46 °F -  
Max Temperature 51 °F 62 °F 82 °F (2003)
Min Temperature 41 °F 38 °F 24 °F (1982)
Degree Days  
Heating Degree Days 19    
Moisture  
Dew Point 45 °F    
Average Humidity 93    
Maximum Humidity 100    
Minimum Humidity 82    
Precipitation  
Precipitation 0.08 in - - ()
Sea Level Pressure  
Sea Level Pressure 29.44 in    
Wind  
Wind Speed 11 mph ()    
Max Wind Speed 31 mph    
Max Gust Speed 40 mph    
Visibility 9.3 miles    
Events Rain    
Averages and records for this station are not official NWS values.
T = Trace of Precipitation, MM = Missing Value Source: Averaged Metar Reports

Daily Weather History Graph

Daily Weather History Graph

Search for Another Location

Airport or City:

Astronomy

Oct. 21, 2019 Rise Set
Actual Time 7:40 AM CDT 6:31 PM CDT
Civil Twilight 7:11 AM CDT 6:59 PM CDT
Nautical Twilight 6:39 AM CDT 7:31 PM CDT
Astronomical Twilight 6:07 AM CDT 8:03 PM CDT
Moon No Moon Rise 3:01 PM CDT (10/21)
Length of Visible Light 11h 47m
Length of Day
10h 51m
Waning Gibbous, 48% of the Moon is Illuminated
Oct 21
Waning Gibbous
Oct 27
New
Nov 4
First Quarter
Nov 12
Full
Nov 19
Last Quarter

Hourly Weather History & Observations

Time (CDT) Temp. Windchill Dew Point Humidity Pressure Visibility Wind Dir Wind Speed Gust Speed Precip Events Conditions
12:15 AM 51.8 °F - 51.8 °F 100% 29.53 in 10.0 mi Calm Calm - N/A   Mostly Cloudy
12:35 AM 51.8 °F - 51.8 °F 100% 29.53 in 10.0 mi SSE 6.9 mph - N/A   Mostly Cloudy
12:55 AM 51.8 °F - 51.8 °F 100% 29.50 in 10.0 mi SE 5.8 mph - N/A   Overcast
1:15 AM 51.8 °F - 51.8 °F 100% 29.50 in 10.0 mi SE 3.5 mph - N/A   Overcast
1:35 AM 51.8 °F - 51.8 °F 100% 29.47 in 10.0 mi SE 4.6 mph - N/A   Mostly Cloudy
1:55 AM 51.8 °F - 51.8 °F 100% 29.46 in 10.0 mi SE 6.9 mph - N/A   Clear
2:15 AM 51.8 °F - 51.8 °F 100% 29.46 in 10.0 mi SSE 5.8 mph - N/A   Clear
2:35 AM 51.8 °F - 51.8 °F 100% 29.45 in 10.0 mi South 3.5 mph - N/A   Partly Cloudy
2:55 AM 50.0 °F - 50.0 °F 100% 29.43 in 10.0 mi SSE 4.6 mph - N/A   Mostly Cloudy
3:15 AM 50.0 °F - 50.0 °F 100% 29.42 in 10.0 mi SSW 4.6 mph - N/A   Overcast
3:35 AM 50.0 °F - 50.0 °F 100% 29.41 in 10.0 mi SW 4.6 mph - N/A   Overcast
3:55 AM 50.0 °F - 50.0 °F 100% 29.41 in 10.0 mi SW 5.8 mph - N/A   Overcast
4:15 AM 50.0 °F - 50.0 °F 100% 29.41 in 10.0 mi South 4.6 mph - N/A   Overcast
4:35 AM 50.0 °F - 50.0 °F 100% 29.40 in 10.0 mi South 4.6 mph - N/A   Overcast
5:15 AM 50.0 °F - 46.4 °F 87% 29.39 in 10.0 mi SSW 6.9 mph 13.8 mph N/A   Overcast
5:35 AM 46.4 °F 42.4 °F 42.8 °F 87% 29.39 in 10.0 mi SSW 8.1 mph - N/A   Mostly Cloudy
5:55 AM 44.6 °F 40.7 °F 41.0 °F 87% 29.38 in 10.0 mi SW 6.9 mph - N/A   Clear
6:15 AM 42.8 °F 37.5 °F 41.0 °F 93% 29.36 in 10.0 mi SW 9.2 mph - N/A   Clear
6:35 AM 42.8 °F 38.0 °F 39.2 °F 87% 29.35 in 10.0 mi SW 8.1 mph - N/A   Clear
6:55 AM 41.0 °F 35.8 °F 39.2 °F 93% 29.34 in 10.0 mi SSW 8.1 mph - N/A   Clear
7:15 AM 41.0 °F 33.9 °F 39.2 °F 93% 29.33 in 10.0 mi SW 12.7 mph - N/A   Clear
7:35 AM 41.0 °F 34.3 °F 39.2 °F 93% 29.32 in 10.0 mi SW 11.5 mph - N/A   Clear
7:55 AM 41.0 °F 33.5 °F 39.2 °F 93% 29.32 in 10.0 mi WSW 13.8 mph - N/A   Clear
8:15 AM 41.0 °F 32.2 °F 39.2 °F 93% 29.32 in 10.0 mi WSW 18.4 mph - N/A   Clear
8:35 AM 41.0 °F 32.2 °F 39.2 °F 93% 29.32 in 10.0 mi WSW 18.4 mph 25.3 mph N/A   Clear
8:55 AM 41.0 °F 32.2 °F 41.0 °F 100% 29.34 in 10.0 mi West 18.4 mph 26.5 mph N/A   Mostly Cloudy
9:15 AM 42.8 °F 34.5 °F 41.0 °F 93% 29.35 in 10.0 mi WSW 18.4 mph - N/A   Overcast
9:35 AM 42.8 °F 35.4 °F 42.8 °F 100% 29.35 in 10.0 mi West 15.0 mph - N/A   Overcast
9:55 AM 42.8 °F 35.8 °F 42.8 °F 100% 29.36 in 10.0 mi WSW 13.8 mph - N/A   Overcast
10:15 AM 44.6 °F 38.4 °F 42.8 °F 93% 29.37 in 10.0 mi West 12.7 mph - N/A   Overcast
10:35 AM 44.6 °F 38.4 °F 42.8 °F 93% 29.37 in 10.0 mi West 12.7 mph - N/A   Overcast
10:55 AM 44.6 °F 37.4 °F 42.8 °F 93% 29.37 in 10.0 mi West 16.1 mph - N/A   Overcast
11:15 AM 44.6 °F 38.4 °F 42.8 °F 93% 29.36 in 10.0 mi WSW 12.7 mph 21.9 mph N/A   Overcast
11:35 AM 46.4 °F 40.4 °F 44.6 °F 93% 29.37 in 10.0 mi WSW 13.8 mph 19.6 mph N/A   Overcast
11:55 AM 46.4 °F 39.8 °F 42.8 °F 87% 29.37 in 10.0 mi WSW 16.1 mph - N/A   Overcast
12:15 PM 46.4 °F 40.1 °F 42.8 °F 87% 29.37 in 10.0 mi WSW 15.0 mph - N/A   Overcast
12:35 PM 46.4 °F 39.8 °F 44.6 °F 93% 29.36 in 10.0 mi WSW 16.1 mph - N/A   Overcast
12:55 PM 50.0 °F - 44.6 °F 82% 29.37 in 10.0 mi SW 19.6 mph - N/A   Overcast
1:15 PM 48.2 °F - 44.6 °F 87% 29.37 in 10.0 mi SW 16.1 mph - N/A   Overcast
1:35 PM 48.2 °F - 44.6 °F 87% 29.37 in 10.0 mi SW 18.4 mph 25.3 mph N/A   Overcast
1:55 PM 50.0 °F - 46.4 °F 87% 29.37 in 10.0 mi WSW 15.0 mph 24.2 mph N/A   Overcast
2:15 PM 51.8 °F - 46.4 °F 82% 29.37 in 10.0 mi SW 19.6 mph 26.5 mph N/A   Mostly Cloudy
2:35 PM 50.0 °F - 46.4 °F 87% 29.39 in 7.0 mi West 25.3 mph - N/A   Mostly Cloudy
2:55 PM 48.2 °F - 44.6 °F 87% 29.39 in 10.0 mi West 16.1 mph 25.3 mph 0.01 in   Mostly Cloudy
3:15 PM 50.0 °F - 46.4 °F 87% 29.40 in 10.0 mi West 24.2 mph 32.2 mph N/A   Mostly Cloudy
3:35 PM 50.0 °F - 44.6 °F 82% 29.40 in 10.0 mi West 26.5 mph 32.2 mph N/A   Overcast
3:55 PM 51.8 °F - 46.4 °F 82% 29.41 in 10.0 mi WSW 26.5 mph 38.0 mph N/A   Overcast
4:15 PM 50.0 °F - 44.6 °F 82% 29.42 in 10.0 mi West 27.6 mph 36.8 mph N/A   Overcast
4:35 PM 50.0 °F - 44.6 °F 82% 29.43 in 10.0 mi WSW 23.0 mph 32.2 mph N/A   Overcast
4:55 PM 48.2 °F - 46.4 °F 93% 29.44 in 3.0 mi WSW 17.3 mph 34.5 mph N/A   Mostly Cloudy
5:15 PM 48.2 °F - 46.4 °F 93% 29.45 in 9.0 mi West 18.4 mph 26.5 mph N/A   Mostly Cloudy
5:35 PM 46.4 °F 37.9 °F 44.6 °F 93% 29.47 in 4.0 mi WNW 25.3 mph 32.2 mph N/A Rain Light Rain
5:55 PM 46.4 °F 38.5 °F 44.6 °F 93% 29.49 in 5.0 mi WNW 21.9 mph 33.4 mph 0.02 in Rain Light Rain
6:15 PM 44.6 °F 36.1 °F 42.8 °F 93% 29.51 in 6.0 mi WNW 21.9 mph 34.5 mph N/A Rain Light Rain
6:35 PM 44.6 °F 36.9 °F 42.8 °F 93% 29.52 in 10.0 mi West 18.4 mph 28.8 mph N/A   Light Drizzle
6:55 PM 44.6 °F 36.6 °F 42.8 °F 93% 29.53 in 8.0 mi West 19.6 mph - 0.01 in Rain Light Rain
7:15 PM 44.6 °F 36.6 °F 42.8 °F 93% 29.54 in 6.0 mi WNW 19.6 mph 28.8 mph N/A Rain Light Rain
7:35 PM 44.6 °F 36.1 °F 42.8 °F 93% 29.55 in 10.0 mi West 21.9 mph 28.8 mph N/A   Light Drizzle
7:55 PM 44.6 °F 35.7 °F 42.8 °F 93% 29.55 in 10.0 mi West 24.2 mph 29.9 mph 0.01 in Rain Light Rain
8:15 PM 44.6 °F 36.1 °F 44.6 °F 100% 29.56 in 8.0 mi West 21.9 mph 27.6 mph N/A Rain Light Rain
8:35 PM 44.6 °F 35.9 °F 44.6 °F 100% 29.56 in 5.0 mi West 23.0 mph 35.7 mph N/A Rain Light Rain
8:55 PM 44.6 °F 35.7 °F 44.6 °F 100% 29.58 in 5.0 mi WNW 24.2 mph 39.1 mph 0.01 in Rain Light Rain
9:15 PM 44.6 °F 35.9 °F 42.8 °F 93% 29.58 in 7.0 mi WNW 23.0 mph 38.0 mph N/A Rain Light Rain
9:35 PM 44.6 °F 34.6 °F 42.8 °F 93% 29.59 in 8.0 mi WNW 31.1 mph 39.1 mph N/A Rain Light Rain
9:55 PM 44.6 °F 35.3 °F 42.8 °F 93% 29.60 in 10.0 mi WNW 26.5 mph 40.3 mph 0.01 in   Overcast
10:15 PM 44.6 °F 35.7 °F 42.8 °F 93% 29.61 in 9.0 mi WNW 24.2 mph 32.2 mph N/A Rain Light Rain
10:35 PM 44.6 °F 35.5 °F 42.8 °F 93% 29.62 in 10.0 mi WNW 25.3 mph 36.8 mph N/A   Overcast
10:55 PM 44.6 °F 35.9 °F 42.8 °F 93% 29.63 in 10.0 mi WNW 23.0 mph 32.2 mph N/A   Overcast
11:15 PM 44.6 °F 34.9 °F 42.8 °F 93% 29.64 in 10.0 mi WNW 28.8 mph 40.3 mph N/A   Overcast
11:35 PM 44.6 °F 35.7 °F 42.8 °F 93% 29.65 in 10.0 mi WNW 24.2 mph 33.4 mph N/A   Overcast
11:55 PM 44.6 °F 35.9 °F 41.0 °F 87% 29.66 in 10.0 mi WNW 23.0 mph 35.7 mph 0.01 in   Overcast